SEJ125 VOBL-VOMM

Flight info

Callsign SEJ125
Flight time N/A
Altitude 19000
Route TULNA7B/27R W116 MMV TULNA2F/25
Aircraft DH8D/M-SDE2E3FGRY/H

Departure

Time N/A
Airport Kempegowda International Airport Bengaluru (VOBL)

Arrival

Time 2026-04-29 09:34
Airport Chennai International Airport (VOMM)
Time Latitude Longitude Altitude Speed Heading
2026-04-29 09:20 13.09895 80.17500 18749 ft 339 kts 68°
2026-04-29 09:21 13.10730 80.19758 18613 ft 344 kts 68°
2026-04-29 09:21 13.11306 80.21313 18143 ft 345 kts 68°
2026-04-29 09:21 13.12158 80.23603 17279 ft 346 kts 68°
2026-04-29 09:21 13.13279 80.26627 16371 ft 339 kts 68°
2026-04-29 09:22 13.14117 80.28852 15695 ft 333 kts 68°
2026-04-29 09:22 13.14891 80.31063 14995 ft 328 kts 69°
2026-04-29 09:22 13.15396 80.32537 14554 ft 324 kts 70°
2026-04-29 09:22 13.16379 80.35394 13713 ft 317 kts 70°
2026-04-29 09:23 13.17114 80.37514 13072 ft 310 kts 70°
2026-04-29 09:23 13.17602 80.38908 12537 ft 311 kts 69°
2026-04-29 09:23 13.18558 80.41624 11630 ft 306 kts 69°
2026-04-29 09:23 13.19038 80.42985 11236 ft 300 kts 69°
2026-04-29 09:24 13.19768 80.44966 10690 ft 291 kts 65°
2026-04-29 09:24 13.20919 80.46604 10096 ft 287 kts 43°
2026-04-29 09:24 13.23293 80.47763 9241 ft 287 kts 11°
2026-04-29 09:24 13.25265 80.47649 8642 ft 287 kts 347°
2026-04-29 09:25 13.27058 80.46701 7963 ft 292 kts 322°
2026-04-29 09:25 13.27964 80.45684 7554 ft 293 kts 307°
2026-04-29 09:25 13.28728 80.43129 7358 ft 266 kts 272°
2026-04-29 09:25 13.28706 80.41267 6947 ft 261 kts 269°
2026-04-29 09:26 13.28662 80.40031 6738 ft 255 kts 269°
2026-04-29 09:26 13.28536 80.37644 6174 ft 251 kts 263°
2026-04-29 09:26 13.27896 80.35984 5647 ft 252 kts 233°
2026-04-29 09:26 13.26585 80.34898 5403 ft 234 kts 202°
2026-04-29 09:27 13.25050 80.34626 5317 ft 211 kts 179°
2026-04-29 09:27 13.23610 80.34619 5031 ft 202 kts 179°
2026-04-29 09:27 13.22225 80.34611 4676 ft 196 kts 179°
2026-04-29 09:27 13.20858 80.34610 4272 ft 194 kts 179°
2026-04-29 09:28 13.19968 80.34614 4007 ft 191 kts 179°
2026-04-29 09:28 13.18633 80.34620 3575 ft 190 kts 179°
2026-04-29 09:28 13.16911 80.34631 3076 ft 186 kts 179°
2026-04-29 09:28 13.15636 80.34641 2715 ft 181 kts 179°
2026-04-29 09:29 13.14793 80.34646 2507 ft 176 kts 179°
2026-04-29 09:29 13.12273 80.34644 2322 ft 184 kts 179°
2026-04-29 09:29 13.10982 80.34644 2295 ft 185 kts 179°
2026-04-29 09:30 13.09275 80.34363 2278 ft 186 kts 199°
2026-04-29 09:30 13.08471 80.34032 2275 ft 186 kts 199°
2026-04-29 09:30 13.07246 80.33540 2272 ft 186 kts 200°
2026-04-29 09:30 13.06159 80.32797 2273 ft 188 kts 219°
2026-04-29 09:31 13.04870 80.31587 2270 ft 188 kts 220°
2026-04-29 09:31 13.04158 80.30454 2271 ft 191 kts 247°
2026-04-29 09:31 13.03880 80.29589 2242 ft 193 kts 246°
2026-04-29 09:31 13.03336 80.28284 2018 ft 206 kts 242°
2026-04-29 09:32 13.02770 80.26884 1743 ft 214 kts 245°
2026-04-29 09:32 13.02245 80.25474 1478 ft 203 kts 244°
2026-04-29 09:32 13.01599 80.23765 1138 ft 179 kts 244°
2026-04-29 09:32 13.01172 80.22620 890 ft 166 kts 244°
2026-04-29 09:33 13.00772 80.21557 672 ft 149 kts 243°
2026-04-29 09:33 13.00424 80.20624 491 ft 133 kts 242°
2026-04-29 09:33 13.00215 80.20043 424 ft 133 kts 245°
2026-04-29 09:33 12.99880 80.19134 250 ft 135 kts 242°
2026-04-29 09:34 12.99529 80.18243 85 ft 136 kts 242°
2026-04-29 09:34 12.99119 80.17168 63 ft 93 kts 247°
2026-04-29 09:34 12.98919 80.16630 64 ft 65 kts 248°
2026-04-29 09:34 12.98847 80.16467 64 ft 28 kts 239°
2026-04-29 09:35 12.98712 80.16328 64 ft 27 kts 218°
2026-04-29 09:35 12.98604 80.16260 64 ft 13 kts 208°
2026-04-29 09:35 12.98509 80.16135 64 ft 18 kts 195°
2026-04-29 09:35 12.98400 80.16170 64 ft 15 kts 139°
2026-04-29 09:36 12.98414 80.16284 64 ft 20 kts 70°
2026-04-29 09:36 12.98461 80.16337 64 ft 11 kts 340°
2026-04-29 09:36 12.98485 80.16328 64 ft 0 kts 337°